ZL4ND Weather Reports


Display with metric or nautical units.
time (UTC)temp
F
wind
direction
speed
MPH
gust
MPH
rain 1hr
in
rain 24hr
in
rain mn
in
humidity
%
barometer
mb
20260505054516 56 304 1.0 4.0 0.00 0.00 0.00 74 1030.4
20260505053518 57 96 3.0 5.0 0.00 0.00 0.00 71 1030.3
20260505052517 57 99 2.0 7.0 0.00 0.00 0.00 72 1030.6
20260505051516 57 259 2.0 6.0 0.00 0.00 0.00 74 1030.5
20260505050518 57 347 3.0 6.0 0.00 0.00 0.00 72 1030.5
20260505041517 57 280 4.0 15.0 0.00 0.00 0.00 73 1030.7
20260505040517 58 240 2.0 8.0 0.00 0.00 0.00 72 1030.6
20260505035518 58 276 2.0 6.0 0.00 0.00 0.00 73 1030.8
20260505034517 58 265 2.0 4.0 0.00 0.00 0.00 73 1030.7
20260505033517 59 255 1.0 5.0 0.00 0.00 0.00 72 1030.7
20260505032516 58 283 2.0 4.0 0.00 0.00 0.00 72 1030.7
20260505031518 59 264 3.0 6.0 0.00 0.00 0.00 72 1030.8
20260505030517 59 247 3.0 7.0 0.00 0.00 0.00 71 1030.8
20260505025517 59 244 2.0 6.0 0.00 0.00 0.00 70 1030.8
20260505024516 59 252 1.0 3.0 0.00 0.00 0.00 71 1030.9
20260505023518 59 285 1.0 3.0 0.00 0.00 0.00 71 1031.0
20260505022517 59 273 1.0 5.0 0.00 0.00 0.00 71 1031.0
20260505021517 59 264 4.0 12.0 0.00 0.00 0.00 71 1031.1
20260505020516 59 269 3.0 9.0 0.00 0.00 0.00 71 1031.2
20260505015517 59 249 3.0 7.0 0.00 0.00 0.00 70 1031.3
20260505014517 59 257 2.0 6.0 0.00 0.00 0.00 70 1031.3
20260505013517 59 279 3.0 9.0 0.00 0.00 0.00 71 1031.5
20260505012516 60 226 3.0 7.0 0.00 0.00 0.00 70 1031.7
20260505011518 60 13 2.0 4.0 0.00 0.00 0.00 70 1031.8
20260505010537 60 313 3.0 9.0 0.00 0.00 0.00 69 1031.9
20260505005516 60 279 2.0 5.0 0.00 0.00 0.00 69 1032.1
20260505003517 61 246 3.0 7.0 0.00 0.00 0.00 68 1032.4
20260505002537 61 237 3.0 5.0 0.00 0.00 0.00 69 1032.6
20260505001517 61 238 4.0 10.0 0.00 0.00 0.00 68 1032.8
20260505000516 61 265 3.0 6.0 0.00 0.00 0.00 68 1032.9
20260504235517 62 64 2.0 5.0 0.00 0.00 0.00 67 1032.9
20260504234517 62 268 2.0 4.0 0.00 0.00 0.00 67 1033.1
20260504233517 62 252 3.0 10.0 0.00 0.00 0.00 65 1033.2
20260504232516 62 267 2.0 11.0 0.00 0.00 0.00 66 1033.3
20260504231517 62 266 2.0 5.0 0.00 0.00 0.00 66 1033.3
20260504230517 61 223 1.0 5.0 0.00 0.00 0.00 67 1033.4
20260504225517 61 300 1.0 2.0 0.00 0.00 0.00 66 1033.4
20260504224516 60 314 2.0 5.0 0.00 0.00 0.00 68 1033.3
20260504223517 60 264 3.0 8.0 0.00 0.00 0.00 68 1033.2
20260504222517 60 259 3.0 7.0 0.00 0.00 0.00 68 1033.2
20260504221517 59 269 3.0 12.0 0.00 0.00 0.00 70 1033.3
20260504220516 58 249 2.0 8.0 0.00 0.00 0.00 72 1033.3
20260504215518 57 99 1.0 3.0 0.00 0.00 0.00 75 1033.3
20260504214517 56 70 2.0 4.0 0.00 0.00 0.00 77 1033.3
20260504213657 57 68 3.0 8.0 0.00 0.00 0.00 73 1033.3
20260504212518 56 89 1.0 3.0 0.00 0.00 0.00 75 1033.2
20260504211518 56 80 2.0 4.0 0.00 0.00 0.00 76 1033.2
20260504210517 57 159 3.0 8.0 0.00 0.00 0.00 73 1033.2
20260504205517 56 139 2.0 10.0 0.00 0.00 0.00 75 1033.1
20260504204516 54 155 3.0 9.0 0.00 0.00 0.00 78 1033.1
20260504203538 54 72 3.0 5.0 0.00 0.00 0.00 78 1033.3
20260504202517 54 81 2.0 8.0 0.00 0.00 0.00 77 1033.3
20260504201516 54 111 2.0 5.0 0.00 0.00 0.00 77 1033.3
20260504200518 55 330 2.0 10.0 0.00 0.00 0.00 78 1033.3
20260504195518 52 279 4.0 9.0 0.00 0.00 0.00 82 1033.2
20260504194517 50 257 2.0 8.0 0.00 0.00 0.00 85 1033.2
20260504192518 50 89 3.0 6.0 0.00 0.00 0.00 83 1033.2
20260504191517 52 125 2.0 8.0 0.00 0.00 0.00 78 1033.2
20260504190537 53 21 3.0 10.0 0.00 0.00 0.00 79 1033.0
20260504185517 52 44 2.0 5.0 0.00 0.00 0.00 80 1033.0
20260504184518 52 295 3.0 9.0 0.00 0.00 0.00 83 1032.9
20260504183517 51 3.0 9.0 0.00 0.00 0.00 84 1032.9
20260504182517 50 87 3.0 10.0 0.00 0.00 0.00 87 1033.0
20260504181516 48 254 1.0 3.0 0.00 0.00 0.00 88 1033.2
20260504180518 49 101 3.0 10.0 0.00 0.00 0.00 87 1033.2
20260504175517 50 2.0 4.0 0.00 0.00 0.00 83 1033.1
20260504174517 51 48 3.0 8.0 0.00 0.00 0.00 82 1033.1
20260504173518 55 75 3.0 7.0 0.00 0.00 0.00 77 1032.9
20260504172517 55 43 2.0 6.0 0.00 0.00 0.00 78 1032.8
20260504171517 55 38 4.0 11.0 0.00 0.00 0.00 77 1032.8
20260504170516 55 311 2.0 7.0 0.00 0.00 0.00 78 1032.8
20260504150517 49 297 0.0 1.0 0.00 0.00 0.00 89 1033.6
20260504140517 49 336 1.0 3.0 0.00 0.00 0.00 88 1034.2
20260504130537 55 135 1.0 7.0 0.00 0.00 0.00 79 1034.3
20260504110517 56 250 2.0 7.0 0.00 0.01 0.01 77 1034.3
20260504100518 56 248 5.0 11.0 0.00 0.01 0.01 77 1034.4
20260504081518 55 250 2.0 8.0 0.00 0.01 0.01 79 1034.2
20260504080517 55 242 3.0 9.0 0.00 0.01 0.01 79 1034.2